Weather History for Covington, KY

Change the Weather History Date:

Tuesday, January 1, 2013

  Actual Average Record
Temperature  
Mean Temperature 30 °F 31 °F  
Max Temperature 34 °F 39 °F 69 °F (1876)
Min Temperature 26 °F 24 °F -4 °F (1968)
Degree Days  
Heating Degree Days 35 34  
Month to date heating degree days 35 34  
Since 1 July heating degree days 1901 1953  
Cooling Degree Days 0 0  
Month to date cooling degree days 0 0  
Year to date cooling degree days 0 0  
Moisture  
Dew Point 28 °F    
Average Humidity 82    
Maximum Humidity 100    
Minimum Humidity 63    
Precipitation  
Precipitation 0.01 in 0.11 in 1.54 in (1948)
Month to date precipitation 0.01 0.11  
Year to date precipitation 0.01 0.11  
Snow  
Snow 0.20 in 0.20 in 7.60 in (1964)
Month to date snowfall 0.2 0.2  
Since 1 July snowfall 7.8 5.8  
Snow Depth 1.00 in    
Sea Level Pressure  
Sea Level Pressure 30.08 in    
Wind  
Wind Speed 6 mph (NW)    
Max Wind Speed 16 mph    
Max Gust Speed 18 mph    
Visibility 4 miles    
Events Snow    
T = Trace of Precipitation, MM = Missing Value Source: NWS Daily Summary

Daily Weather History Graph

Daily Weather History Graph

Search for Another Location

Airport:

Trip Planner

Search our weather history database for the weather conditions in past years. The results will help you decide how hot, cold, wet, or windy it might be!

Date:

Astronomy

Jan. 01, 2013 Rise Set
Actual Time 7:57 AM EST 5:27 PM EST
Civil Twilight 7:27 AM EST 5:57 PM EST
Nautical Twilight 6:54 AM EST 6:30 PM EST
Astronomical Twilight 6:22 AM EST 7:03 PM EST
Moon 9:55 PM EST (1/1) 10:11 AM EST (1/1)
Length of Visible Light 10h 29m
Length of Day
9h 29m
Waning Gibbous, 83% of the Moon is Illuminated
Jan 1
Waning Gibbous
Jan 4
Last Quarter
Jan 11
New
Jan 18
First Quarter
Jan 26
Full

Hourly Weather History & Observations

Time (EST) Temp. Windchill Dew Point Humidity Pressure Visibility Wind Dir Wind Speed Gust Speed Precip Events Conditions
12:07 AM 33.8 °F 27.0 °F 30.2 °F 87% 30.07 in 1.5 mi SW 8.1 mph - 0.00 in Snow Light Snow
12:52 AM 32.0 °F 28.7 °F 30.9 °F 96% 30.07 in 1.5 mi SSW 3.5 mph - 0.01 in Snow Light Snow
1:52 AM 32.0 °F - 32.0 °F 100% 30.05 in 1.5 mi Calm Calm - 0.00 in Snow Light Snow
2:52 AM 33.1 °F - 32.0 °F 96% 30.04 in 1.5 mi Calm Calm - 0.00 in Snow Light Drizzle
3:23 AM 33.8 °F - 32.0 °F 93% 30.04 in 0.8 mi Calm Calm - 0.00 in Snow Light Drizzle
3:27 AM 33.8 °F 30.8 °F 32.0 °F 93% 30.04 in 0.8 mi SW 3.5 mph - 0.00 in Snow Light Drizzle
3:52 AM 33.1 °F 28.7 °F 32.0 °F 96% 30.06 in 0.8 mi West 4.6 mph - 0.00 in Snow Light Drizzle
4:52 AM 33.1 °F 28.7 °F 32.0 °F 96% 30.06 in 0.8 mi West 4.6 mph - 0.00 in Snow Light Drizzle
5:35 AM 32.0 °F 26.4 °F 32.0 °F 100% 30.04 in 0.8 mi West 5.8 mph - 0.00 in Snow Light Drizzle
5:52 AM 32.0 °F 27.5 °F 32.0 °F 100% 30.06 in 0.8 mi West 4.6 mph - 0.00 in Snow Light Drizzle
6:31 AM 32.0 °F 27.5 °F 32.0 °F 100% 30.05 in 2.0 mi WNW 4.6 mph - 0.00 in Snow Light Drizzle
6:39 AM 32.0 °F 28.7 °F 32.0 °F 100% 30.05 in 2.0 mi WNW 3.5 mph - 0.00 in Snow Light Drizzle
6:52 AM 32.0 °F 28.7 °F 32.0 °F 100% 30.07 in 2.0 mi WNW 3.5 mph - 0.00 in   Overcast
7:52 AM 32.0 °F 26.4 °F 30.9 °F 96% 30.09 in 2.0 mi WNW 5.8 mph - N/A   Overcast
8:47 AM 32.0 °F 27.5 °F 30.2 °F 93% 30.07 in 2.0 mi NW 4.6 mph - N/A   Mostly Cloudy
8:52 AM 32.0 °F 28.7 °F 30.9 °F 96% 30.09 in 2.0 mi NW 3.5 mph - N/A   Overcast
9:23 AM 33.8 °F 30.8 °F 30.2 °F 87% 30.06 in 2.0 mi NNW 3.5 mph - N/A   Overcast
9:52 AM 33.8 °F - 30.2 °F 87% 30.06 in 3.0 mi Calm Calm - N/A   Overcast
10:52 AM 33.1 °F 26.9 °F 30.9 °F 92% 30.10 in 6.0 mi North 6.9 mph - N/A   Overcast
11:52 AM 33.1 °F 27.7 °F 30.0 °F 89% 30.12 in 8.0 mi NNW 5.8 mph - N/A   Overcast
12:52 PM 32.0 °F 21.6 °F 30.0 °F 92% 30.08 in 3.0 mi NNW 15.0 mph - N/A   Overcast
12:56 PM 32.0 °F 22.1 °F 30.2 °F 93% 30.06 in 2.0 mi North 13.8 mph - N/A   Overcast
1:52 PM 30.9 °F 24.3 °F 28.0 °F 89% 30.09 in 2.0 mi NNW 6.9 mph - N/A   Overcast
2:13 PM 32.0 °F 25.6 °F 28.4 °F 87% 30.06 in 2.0 mi North 6.9 mph - N/A   Overcast
2:52 PM 32.0 °F 25.6 °F 25.0 °F 75% 30.08 in 2.0 mi North 6.9 mph - N/A   Haze
2:54 PM 32.0 °F 24.8 °F 24.8 °F 75% 30.06 in 3.0 mi NNW 8.1 mph - N/A   Haze
3:52 PM 32.0 °F 24.8 °F 24.1 °F 73% 30.09 in 5.0 mi North 8.1 mph - N/A   Haze
4:27 PM 30.2 °F 24.3 °F 24.8 °F 80% 30.06 in 5.0 mi North 5.8 mph - N/A   Haze
4:52 PM 30.9 °F 23.5 °F 24.1 °F 76% 30.09 in 5.0 mi North 8.1 mph - N/A   Haze
5:52 PM 30.0 °F 23.2 °F 23.0 °F 75% 30.09 in 7.0 mi North 6.9 mph - N/A   Overcast
6:52 PM 30.0 °F 22.4 °F 21.0 °F 69% 30.11 in 8.0 mi North 8.1 mph - N/A   Overcast
7:52 PM 28.9 °F 22.8 °F 19.9 °F 69% 30.13 in 9.0 mi North 5.8 mph - N/A   Overcast
8:52 PM 28.0 °F 20.8 °F 17.1 °F 63% 30.13 in 10.0 mi North 6.9 mph - N/A   Overcast
9:52 PM 28.0 °F 20.0 °F 18.0 °F 66% 30.15 in 10.0 mi North 8.1 mph - N/A   Overcast
10:52 PM 27.0 °F 20.5 °F 18.0 °F 69% 30.15 in 10.0 mi North 5.8 mph - N/A   Overcast
11:52 PM 26.1 °F 17.6 °F 17.1 °F 69% 30.16 in 9.0 mi NNW 8.1 mph - N/A   Overcast